This demonstration page uses our WeatherBlox Daily Observations layout. Learn more.

Left ArrowRight Arrow

Hourly Observations for April 25, 2022

Temp ( °F °C ) Dew Point ( °F °C ) Humidity (%) Winds ( mph kmh ) Pressure ( in mb ) Visibility ( mi km ) Precip ( " mm )
12:53 am 00:53 Mostly Clear 39 3.9 31 -0.6 73 73 N 9 15 30.21 1023 10 16 0.00 0.00
1:53 am 01:53 Clear 34 1.1 28 -2.2 79 79 W 5 7 30.24 1024 10 16 0.00 0.00
2:53 am 02:53 Clear 35 1.7 29 -1.7 78 78 NW 13 20 30.24 1024 10 16 0.00 0.00
3:53 am 03:53 Clear 34 1.1 28 -2.2 79 79 NW 10 17 30.24 1024 10 16 0.00 0.00
4:53 am 04:53 Clear 34 1.1 28 -2.2 79 79 WNW 9 15 30.26 1025 10 16 0.00 0.00
5:53 am 05:53 Clear 33 0.6 27 -2.8 78 78 NW 10 17 30.27 1025 10 16 0.00 0.00
6:53 am 06:53 Sunny 32 0 26 -3.3 79 79 NW 12 19 30.30 1026 10 16 0.00 0.00
7:53 am 07:53 Sunny 34 1.1 27 -2.8 76 76 NW 10 17 30.33 1027 10 16 0.00 0.00
8:53 am 08:53 Sunny 39 3.9 26 -3.3 60 60 NNW 20 31 30.34 1028 10 16 0.00 0.00
9:53 am 09:53 Sunny 42 5.6 25 -3.9 51 51 NNW 21 33 30.35 1028 10 16 0.00 0.00
10:53 am 10:53 Sunny 46 7.8 23 -5 40 40 NNW 22 35 30.34 1027 10 16 0.00 0.00
11:53 am 11:53 Sunny 50 10 20 -6.7 30 30 N 22 35 30.35 1028 10 16 0.00 0.00
12:53 pm 12:53 Sunny 53 11.7 20 -6.7 27 27 NNW 18 30 30.34 1028 10 16 0.00 0.00
1:53 pm 13:53 Sunny 55 12.8 18 -7.8 23 23 NNW 22 35 30.34 1027 10 16 0.00 0.00
2:53 pm 14:53 Sunny 57 13.9 17 -8.3 21 21 N 22 35 30.33 1027 10 16 0.00 0.00
3:53 pm 15:53 Sunny 58 14.4 17 -8.3 20 20 N 16 26 30.32 1027 10 16 0.00 0.00
4:53 pm 16:53 Sunny 56 13.3 13 -10.6 18 18 NW 13 20 30.32 1027 10 16 0.00 0.00
5:53 pm 17:53 Sunny 57 13.9 13 -10.6 17 17 NNW 17 28 30.33 1027 10 16 0.00 0.00
6:53 pm 18:53 Sunny 56 13.3 13 -10.6 18 18 NNW 16 26 30.34 1028 10 16 0.00 0.00
7:53 pm 19:53 Sunny 52 11.1 14 -10 22 22 N 7 11 30.36 1028 10 16 0.00 0.00
8:53 pm 20:53 Clear 45 7.2 14 -10 29 29 NNE 3 6 30.37 1029 7 11 0.00 0.00
9:53 pm 21:53 Clear 43 6.1 14 -10 31 31 Calm 30.39 1029 10 16 0.00 0.00
10:53 pm 22:53 Clear 41 5 16 -8.9 36 36 Calm 30.39 1029 10 16 0.00 0.00
11:53 pm 23:53 Clear 34 1.1 18 -7.8 52 52 ENE 3 6 30.40 1029 10 16 0.00 0.00

Powered by AerisWeather